TimeCST,TemperatureF,Dew PointF,Humidity,Sea Level PressureIn,VisibilityMPH,Wind Direction,Wind SpeedMPH,Gust SpeedMPH,PrecipitationIn,Events,Conditions,WindDirDegrees,DateUTC
12:53 AM,24.1,19.9,84,29.53,10.0,SSW,3.5,-,N/A,,Mostly Cloudy,200,2014-01-12 06:53:00
1:10 AM,23.0,19.4,86,29.47,10.0,South,3.5,-,N/A,,Scattered Clouds,180,2014-01-12 07:10:00
1:53 AM,21.9,19.0,89,29.54,9.0,South,5.8,-,N/A,,Mostly Cloudy,170,2014-01-12 07:53:00
2:53 AM,21.9,19.0,89,29.52,8.0,South,3.5,-,N/A,,Overcast,170,2014-01-12 08:53:00
3:36 AM,21.2,19.4,93,29.44,8.0,SSE,6.9,-,N/A,,Overcast,150,2014-01-12 09:36:00
3:53 AM,23.0,19.0,85,29.50,8.0,SSE,5.8,-,N/A,,Overcast,160,2014-01-12 09:53:00
6:53 AM,25.0,19.9,81,29.36,10.0,SSE,6.9,-,N/A,,Clear,160,2014-01-12 12:53:00
7:53 AM,25.0,19.9,81,29.34,9.0,SSE,8.1,-,N/A,,Overcast,160,2014-01-12 13:53:00
8:53 AM,27.0,21.0,78,29.36,9.0,South,5.8,-,0.00,,Overcast,190,2014-01-12 14:53:00
9:23 AM,28.4,23.0,80,29.30,4.0,South,5.8,-,0.00,Rain,Light Freezing Rain,190,2014-01-12 15:23:00
9:53 AM,28.9,25.0,85,29.34,3.0,South,6.9,-,0.04,Rain,Light Freezing Rain,170,2014-01-12 15:53:00
10:24 AM,28.4,24.8,86,29.29,8.0,South,5.8,-,0.00,,Overcast,170,2014-01-12 16:24:00
10:51 AM,30.2,26.6,86,29.30,9.0,SSW,5.8,-,0.00,,Overcast,200,2014-01-12 16:51:00
10:53 AM,30.0,26.1,85,29.36,9.0,Variable,5.8,-,0.00,,Overcast,0,2014-01-12 16:53:00
11:53 AM,30.9,27.0,85,29.34,10.0,Variable,6.9,-,N/A,,Overcast,0,2014-01-12 17:53:00
12:30 PM,32.0,28.4,87,29.24,10.0,South,6.9,-,N/A,,Scattered Clouds,190,2014-01-12 18:30:00
12:53 PM,33.1,28.0,82,29.31,10.0,SW,4.6,-,N/A,,Mostly Cloudy,220,2014-01-12 18:53:00
2:53 PM,35.1,28.9,78,29.31,10.0,Variable,5.8,-,N/A,,Clear,0,2014-01-12 20:53:00
5:53 PM,30.0,26.1,85,29.39,5.0,South,4.6,-,N/A,,Clear,190,2014-01-12 23:53:00
6:53 PM,28.9,25.0,85,29.41,10.0,SW,3.5,-,N/A,,Clear,220,2014-01-13 00:53:00
7:44 PM,26.6,23.0,86,29.36,2.0,Calm,Calm,-,N/A,,Clear,0,2014-01-13 01:44:00
7:58 PM,21.2,19.4,93,29.35,0.8,Calm,Calm,-,N/A,,Clear,0,2014-01-13 01:58:00
8:17 PM,21.2,17.6,86,29.36,0.2,Calm,Calm,-,N/A,Fog,Light Freezing Fog,0,2014-01-13 02:17:00
8:26 PM,19.4,15.8,86,29.36,0.8,Calm,Calm,-,N/A,,Mist,0,2014-01-13 02:26:00
8:38 PM,17.6,15.8,93,29.36,0.2,Calm,Calm,-,N/A,Fog,Light Freezing Fog,0,2014-01-13 02:38:00
9:00 PM,17.6,15.8,93,29.36,1.0,Calm,Calm,-,N/A,,Mist,0,2014-01-13 03:00:00
9:02 PM,17.6,14.0,86,29.36,2.5,SW,3.5,-,N/A,,Partly Cloudy,220,2014-01-13 03:02:00
9:09 PM,17.6,14.0,86,29.36,7.0,SW,3.5,-,N/A,,Clear,220,2014-01-13 03:09:00
9:50 PM,15.8,12.2,86,29.37,3.0,Calm,Calm,-,N/A,,Clear,0,2014-01-13 03:50:00
9:53 PM,16.0,12.9,88,29.44,7.0,Calm,Calm,-,N/A,,Clear,0,2014-01-13 03:53:00
10:01 PM,12.2,10.4,92,29.38,1.8,Calm,Calm,-,N/A,,Clear,0,2014-01-13 04:01:00
10:10 PM,15.8,12.2,86,29.38,0.5,Calm,Calm,-,N/A,Fog,Light Freezing Fog,0,2014-01-13 04:10:00
10:17 PM,15.8,12.2,86,29.38,0.5,Calm,Calm,-,N/A,Fog,Light Freezing Fog,0,2014-01-13 04:17:00
10:23 PM,17.6,12.2,79,29.38,2.0,WNW,3.5,-,N/A,,Clear,290,2014-01-13 04:23:00
10:30 PM,17.6,12.2,79,29.38,6.0,West,5.8,-,N/A,,Clear,280,2014-01-13 04:30:00
10:53 PM,27.0,24.1,89,29.44,10.0,West,4.6,-,N/A,,Clear,280,2014-01-13 04:53:00
11:17 PM,28.4,24.8,86,29.39,10.0,West,6.9,-,N/A,,Mostly Cloudy,280,2014-01-13 05:17:00
11:27 PM,28.4,26.6,93,29.39,10.0,West,5.8,-,N/A,,Overcast,270,2014-01-13 05:27:00